CAPE
0 0 0 28 271 288 169 46 167 204 256 583 666 1082 223 606 1018 1241 660 104 34 178 599 946 1721 1607 1127 1564 1635 1613 1607 1578 1521 1441 1313 1267 1465 1465 1835 1627 1214 938 359 187 19 18 27 33 45
0 0 0 18 167 67 55 69 263 260 612 708 665 734 87 9 143 1112 444 156 213 276 639 876 2075 2113 1740 1668 1565 1660 1666 1551 1510 1588 1576 1501 1578 1712 1162 752 552 168 22 0 0 0 0 0 0
0 0 0 3 87 87 136 191 308 379 579 317 247 327 113 335 246 816 443 234 197 229 734 1574 1925 1871 1488 1450 1518 1879 2010 2037 2026 1450 1258 1295 1279 926 620 381 212 2 0 0 0 0 0 0 0
0 0 0 13 27 31 202 281 335 364 349 468 326 440 351 1002 516 1195 562 308 286 278 665 1626 1883 1926 1643 1367 1671 2175 2324 2285 1383 1097 950 974 431 468 319 161 43 0 0 0 0 0 0 0 0
0 0 1 87 34 73 145 255 325 443 533 449 717 486 1334 1300 1439 1000 654 374 342 440 508 911 2205 2235 2175 1901 1896 1622 2104 1386 1162 722 580 423 384 271 129 27 0 0 0 0 0 0 0 0 0
0 0 12 71 37 32 165 302 359 510 512 423 644 622 1500 1232 1276 719 617 343 473 710 461 843 2192 2645 2529 2133 1871 1347 1175 1044 675 537 546 339 259 148 0 0 0 0 0 0 0 0 0 0 0
0 0 49 20 3 56 121 320 311 399 437 375 561 615 1727 1172 1106 781 670 541 870 878 968 947 1224 1552 1741 1987 1540 948 698 537 418 363 373 315 123 14 0 0 0 0 0 0 0 0 0 0 0
0 0 52 2 27 19 0 211 378 444 395 610 611 88 1349 1424 1134 867 704 820 1073 1290 1279 1247 780 608 346 497 687 679 540 441 498 385 310 229 94 23 0 23 0 0 0 0 0 0 0 0 0
0 1 59 1 0 2 0 73 100 361 453 412 469 612 1356 1940 1081 1064 1022 1013 1196 1274 1427 1130 685 437 193 157 147 262 84 75 149 14 9 91 0 0 0 0 0 0 0 0 0 0 0 0 0
0 20 20 0 0 0 1 1 99 174 241 473 576 876 1545 2061 1238 1229 1150 1078 1037 1059 1863 1104 506 206 100 0 0 0 0 0 0 0 0 0 0 0 0 0 0 0 0 0 0 0 0 3 0
0 40 0 0 0 0 0 0 3 31 151 133 293 872 1720 1872 1388 1222 970 784 838 986 1467 1021 480 118 7 0 51 3 20 8 0 0 0 0 0 0 0 0 0 0 0 0 0 0 0 0 0
0 0 0 0 0 0 0 0 4 3 32 42 155 548 1766 1893 1549 1237 926 684 694 1105 1306 659 301 213 393 257 102 46 26 18 1 11 0 0 0 0 0 0 0 0 0 0 0 0 0 0 0
0 0 0 0 0 0 0 0 4 35 10 110 36 480 1480 1975 1805 1524 1033 786 766 1225 674 441 564 557 573 299 333 123 80 56 44 2 0 0 0 0 0 0 0 0 0 0 0 0 4 3 0
0 0 0 0 0 0 0 8 0 34 47 85 83 206 979 1619 1765 1832 1278 899 973 966 346 565 689 876 798 671 493 251 197 101 12 6 1 0 0 0 0 6 1 1 0 0 0 10 18 10 4
0 0 0 0 0 0 0 0 9 0 0 0 113 153 609 1298 1558 1695 1455 1436 834 591 463 436 281 338 846 827 168 69 78 31 9 2 4 0 0 1 5 6 3 6 0 1 18 15 15 13 10
0 0 0 0 0 0 0 13 35 0 0 0 28 135 333 948 1350 1162 249 276 140 48 65 7 2 96 74 103 110 81 1 0 0 0 0 3 1 8 15 12 19 13 4 3 12 9 8 17 30
0 0 14 8 0 0 0 0 26 0 0 8 93 134 370 1362 2037 1022 367 200 245 42 0 0 3 0 0 0 31 135 124 74 39 12 0 2 2 0 0 3 17 17 18 19 26 25 38 26 29
3 0 1 0 2 0 0 3 2 0 8 101 230 438 1692 2263 1870 922 424 191 69 34 16 0 0 0 0 145 4 0 3 6 57 94 31 1 0 1 1 2 48 18 24 22 55 62 26 28 53
0 0 0 6 0 0 0 0 3 8 144 213 358 758 1992 1626 862 589 222 40 105 44 11 0 34 12 37 27 35 54 74 8 132 14 51 0 0 0 3 0 22 31 22 44 59 25 36 22 45
0 0 31 2 1 0 0 5 52 117 341 360 316 1007 1711 985 415 101 106 111 62 17 1 13 0 6 3 15 31 49 72 61 87 150 8 5 1 0 6 25 17 24 17 48 10 30 26 30 73
25 0 0 0 0 0 25 28 141 136 365 593 709 748 1344 980 132 116 86 60 7 20 41 54 25 18 15 7 12 74 182 200 178 179 64 30 7 13 31 28 26 31 29 18 27 53 69 60 34
58 0 0 0 0 1 2 7 148 189 440 734 838 859 959 580 126 155 141 54 39 49 66 71 45 8 29 88 165 91 176 332 113 153 306 19 69 70 39 28 13 47 28 56 35 63 80 80 68
2 0 0 0 0 11 63 56 265 157 665 623 801 672 336 48 0 6 4 4 3 0 0 1 1 0 1 2 0 0 0 13 78 77 89 116 101 48 30 22 17 82 47 99 59 86 86 54 53
0 0 0 0 11 73 119 86 94 208 197 996 234 151 7 7 4 3 1 0 0 0 0 0 0 0 3 2 3 33 104 60 23 20 11 5 19 29 49 16 61 98 66 70 86 118 84 73 84
4 3 0 31 15 65 69 47 370 405 772 1006 212 7 8 2 0 0 0 0 0 0 0 0 8 15 4 0 2 7 13 18 12 25 27 36 36 83 136 77 86 79 74 75 124 107 148 103 93
0 0 32 18 0 4 31 92 204 699 261 223 7 4 0 0 0 0 0 0 4 14 10 1 0 0 0 0 6 15 21 17 18 90 31 40 47 82 175 125 135 97 107 81 140 97 157 108 95
0 9 0 1 106 131 53 323 496 340 138 56 57 0 0 0 0 0 8 4 0 0 4 0 0 12 15 13 17 31 46 68 69 138 129 76 120 101 110 101 94 112 115 114 147 198 149 143 98
4 2 6 80 44 39 97 144 219 114 112 321 16 2 0 0 1 0 2 9 0 3 7 5 11 8 10 27 47 46 87 104 150 170 98 175 145 135 138 143 169 106 130 141 169 192 124 114 49
0 31 34 29 62 86 82 133 66 126 213 514 0 0 4 2 2 5 1 0 0 0 6 17 26 17 28 42 61 98 104 120 65 98 117 126 168 152 145 130 128 126 140 182 186 147 130 110 90
0 18 32 85 72 75 69 165 95 94 144 264 5 3 4 0 0 0 0 0 15 12 7 16 15 11 24 38 89 112 96 109 136 143 129 155 170 189 164 171 174 151 135 148 124 124 131 103 103
CIN
-0 -0 -0 -90 -47 -1 -1 -0 -0 -0 -1 -38 -5 -1 -48 -27 -7 -0 -11 -115 -170 -92 -49 -16 -0 -0 -8 -0 -0 -0 -0 -0 -0 -0 -2 -0 -0 -0 -0 -0 -3 -17 -82 -117 -139 -152 -146 -160 -191
-0 -0 -0 -47 -0 -12 -24 -6 -0 -4 -41 -52 -16 -5 -42 -114 -113 -30 -61 -105 -96 -119 -52 -29 -0 -0 -0 -0 -0 -0 -0 -0 -0 -0 -0 -0 -0 -0 -3 -21 -37 -114 -203 -0 -0 -0 -0 -0 -0
-0 -0 -0 -3 -1 -1 -0 -0 -0 -19 -57 -31 -18 -6 -1 -15 -112 -87 -110 -126 -127 -104 -39 -6 -0 -0 -0 -0 -0 -0 -0 -0 -0 -0 -4 -4 -5 -23 -47 -82 -110 -28 -0 -0 -0 -0 -0 -0 -0
-0 -0 -0 -4 -4 -2 -0 -0 -0 -16 -27 -22 -10 -5 -25 -28 -60 -33 -101 -140 -91 -97 -64 -18 -0 -0 -0 -7 -0 -0 -0 -0 -0 -13 -32 -17 -80 -71 -98 -142 -182 -0 -0 -0 -0 -0 -0 -0 -0
-0 -0 -0 -0 -0 -0 -0 -1 -2 -0 -0 -0 -5 -9 -5 -38 -33 -65 -82 -98 -77 -35 -102 -91 -0 -0 -0 -0 -0 -0 -0 -0 -5 -52 -70 -96 -97 -116 -162 -107 -0 -0 -0 -0 -0 -0 -0 -0 -0
-0 -0 -0 -4 -0 -6 -0 -0 -3 -0 -0 -0 -0 -0 -0 -37 -38 -68 -63 -64 -4 -4 -71 -98 -0 -0 -0 -0 -0 -1 -4 -16 -66 -82 -79 -113 -124 -163 -0 -0 -0 -0 -0 -0 -0 -0 -0 -0 -0
-0 -0 -2 -8 -0 -6 -0 -0 -0 -0 -0 -0 -1 -0 -5 -22 -32 -38 -37 -14 -0 -1 -9 -26 -10 -6 -0 -0 -0 -24 -55 -85 -107 -123 -113 -128 -182 -89 -0 -0 -0 -0 -0 -0 -0 -0 -0 -0 -0
-0 -0 -0 -0 -0 -0 -0 -0 -0 -0 -1 -2 -10 -319 -3 -16 -35 -22 -15 -1 -0 -0 -0 -0 -39 -50 -76 -53 -49 -65 -89 -123 -116 -128 -141 -157 -171 -194 -0 -192 -0 -0 -0 -0 -0 -0 -0 -0 -0
-0 -0 -0 -0 -0 -0 -0 -2 -2 -0 -0 -0 -0 -0 -3 -21 -37 -18 -3 -0 -0 -0 -4 -0 -20 -59 -80 -144 -178 -73 -204 -214 -144 -47 -185 -164 -0 -0 -0 -0 -0 -0 -0 -0 -0 -0 -0 -0 -0
-0 -2 -3 -0 -0 -0 -0 -0 -0 -0 -0 -0 -0 -0 -0 -27 -28 -14 -2 -0 -0 -0 -0 -0 -9 -24 -58 -0 -0 -0 -0 -0 -0 -0 -0 -0 -0 -0 -0 -0 -0 -0 -0 -0 -0 -0 -0 -1 -0
-0 -1 -0 -0 -0 -0 -0 -0 -0 -0 -3 -1 -0 -0 -0 -25 -27 -5 -1 -0 -0 -0 -0 -0 -21 -45 -90 -0 -73 -31 -85 -104 -0 -0 -0 -0 -0 -0 -0 -0 -0 -0 -0 -0 -0 -0 -0 -0 -0
-0 -0 -0 -0 -0 -0 -0 -0 -0 -0 -0 -17 -0 -0 -8 -18 -12 -7 -0 -0 -0 -0 -1 -0 -54 -60 -11 -28 -34 -50 -28 -75 -0 -106 -0 -0 -0 -0 -0 -0 -0 -0 -0 -0 -0 -0 -0 -0 -0
-0 -0 -0 -0 -0 -0 -0 -0 -0 -0 -2 -1 -8 -0 -0 -0 -0 -0 -0 -0 -0 -0 -1 -18 -34 -38 -35 -48 -19 -11 -8 -39 -19 -0 -0 -0 -0 -0 -0 -0 -0 -0 -0 -0 -0 -0 -0 -0 -0
-0 -0 -0 -0 -0 -0 -0 -0 -0 -2 -1 -0 -3 -0 -0 -0 -0 -0 -0 -0 -0 -5 -52 -61 -76 -36 -19 -18 -19 -13 -16 -54 -40 -0 -0 -0 -0 -0 -0 -0 -0 -0 -0 -0 -0 -0 -0 -0 -0
-0 -0 -0 -0 -0 -0 -0 -0 -1 -0 -0 -0 -0 -0 -0 -0 -0 -0 -0 -24 -69 -52 -159 -148 -152 -132 -43 -38 -72 -56 -40 -14 -0 -0 -0 -0 -0 -0 -34 -0 -0 -0 -0 -0 -0 -0 -0 -0 -0
-0 -0 -0 -0 -0 -0 -0 -0 -2 -0 -0 -0 -0 -0 -0 -1 -3 -251 -331 -284 -332 -256 -329 -147 -52 -224 -166 -140 -89 -53 -67 -0 -0 -0 -0 -9 -6 -36 -50 -31 -2 -2 -0 -0 -0 -0 -0 -0 -0
-0 -0 -0 -0 -0 -0 -0 -0 -4 -0 -0 -3 -4 -0 -0 -25 -181 -296 -285 -219 -259 -266 -73 -0 -123 -0 -0 -0 -116 -16 -32 -64 -76 -164 -0 -122 -99 -18 -0 -22 -9 -11 -5 -0 -0 -0 -0 -0 -0
-0 -0 -0 -0 -0 -0 -0 -0 -0 -0 -17 -9 -11 -10 -16 -117 -144 -234 -284 -290 -302 -274 -178 -0 -0 -0 -0 -17 -153 -76 -102 -86 -106 -46 -53 -7 -0 -0 -16 -18 -33 -12 -0 -0 -0 -0 -0 -0 -0
-0 -0 -0 -0 -0 -0 -0 -0 -0 -3 -11 -11 -15 -0 -94 -135 -214 -243 -339 -343 -214 -254 -67 -0 -101 -51 -80 -64 -87 -71 -50 -90 -23 -48 -30 -0 -0 -0 -71 -0 -0 -0 -0 -0 -0 -0 -0 -0 -0
-0 -0 -0 -0 -0 -0 -0 -0 -0 -13 -11 -36 -22 -0 -43 -149 -226 -316 -271 -245 -253 -0 -6 -11 -0 -65 -102 -74 -77 -78 -7 -16 -21 -1 -34 -70 -0 -0 -0 -0 -0 -0 -0 -0 -0 -0 -0 -0 -0
-0 -0 -0 -0 -0 -0 -0 -0 -1 -19 -14 -13 -31 -29 -2 -74 -274 -245 -234 -215 -0 -0 -58 -50 -20 -51 -63 -125 -102 -17 -0 -0 -4 -0 -0 -5 -0 -0 -1 -2 -0 -0 -0 -0 -0 -0 -0 -0 -0
-0 -0 -0 -0 -0 -0 -0 -0 -0 -0 -0 -4 -6 -2 -0 -60 -168 -131 -115 -132 -159 -15 -10 -63 -15 -60 -44 -12 -10 -3 -0 -0 -6 -13 -3 -0 -0 -0 -0 -0 -0 -0 -0 -0 -0 -0 -0 -0 -0
-0 -0 -0 -0 -0 -0 -0 -0 -12 -0 -3 -2 -45 -78 -89 -160 -0 -0 -0 -0 -0 -0 -0 -0 -0 -0 -0 -5 -0 -0 -0 -17 -0 -0 -2 -0 -0 -0 -0 -5 -3 -0 -0 -0 -0 -0 -0 -0 -0
-0 -0 -0 -0 -0 -0 -0 -0 -0 -21 -0 -24 -204 -171 -0 -0 -0 -0 -0 -0 -0 -0 -0 -0 -0 -0 -2 -3 -4 -6 -0 -1 -4 -0 -0 -0 -0 -0 -10 -16 -0 -0 -0 -0 -0 -0 -0 -0 -0
-0 -0 -0 -0 -0 -0 -1 -3 -1 -0 -4 -31 -204 -0 -0 -0 -0 -0 -0 -0 -0 -0 -0 -0 -0 -0 -0 -0 -0 -3 -0 -0 -0 -0 -0 -1 -0 -2 -1 -0 -0 -0 -2 -0 -0 -0 -0 -0 -0
-0 -0 -0 -0 -0 -0 -2 -1 -85 -1 -64 -238 -39 -0 -0 -0 -0 -0 -0 -0 -18 -9 -3 -0 -0 -0 -0 -0 -0 -0 -0 -0 -0 -1 -0 -0 -0 -1 -1 -3 -2 -0 -1 -0 -0 -0 -0 -0 -0
-0 -0 -0 -0 -0 -0 -5 -7 -7 -18 -7 -103 -242 -0 -0 -0 -0 -0 -1 -0 -0 -0 -0 -0 -0 -0 -0 -0 -0 -0 -0 -0 -0 -1 -1 -7 -0 -4 -0 -0 -0 -0 -0 -0 -0 -0 -0 -0 -0
-0 -0 -0 -0 -0 -0 -0 -0 -3 -11 -5 -1 -2 -0 -0 -0 -0 -0 -0 -0 -0 -0 -0 -0 -0 -0 -8 -0 -0 -1 -1 -1 -1 -3 -0 -1 -0 -0 -0 -0 -0 -0 -0 -0 -0 -0 -0 -0 -0
-0 -0 -0 -1 -0 -0 -0 -3 -29 -54 -40 -1 -0 -0 -0 -1 -0 -4 -1 -0 -0 -0 -0 -0 -0 -0 -0 -0 -0 -3 -1 -0 -0 -0 -0 -0 -0 -0 -0 -0 -0 -0 -0 -0 -0 -0 -0 -0 -0
-0 -0 -0 -0 -0 -0 -0 -0 -18 -35 -22 -0 -3 -0 -0 -0 -0 -0 -0 -0 -0 -0 -0 -0 -0 -3 -1 -1 -1 -3 -0 -0 -0 -0 -0 -0 -0 -0 -0 -0 -0 -0 -0 -0 -0 -0 -1 -0 -0
Wind_Speed
12 14 11 10 11 6 14 15 4 13 10 6 6 9 5 14 10 6 7 7 10 16 14 13 10 11 11 11 11 12 12 13 13 14 14 13 13 13 12 13 14 15 16 16 15 15 15 14 14
16 9 9 10 16 5 9 8 16 13 12 8 5 6 5 3 5 9 8 8 14 13 11 13 11 11 12 11 11 11 12 13 13 13 14 14 13 14 15 15 15 15 15 15 15 14 14 14 13
15 12 11 17 10 11 11 14 13 13 10 3 7 6 4 9 9 10 13 12 13 12 14 14 12 12 12 12 12 12 12 13 13 14 14 16 16 16 15 14 14 15 15 15 14 14 14 14 13
8 11 12 12 6 14 10 11 13 9 6 1 3 10 4 6 9 12 17 14 13 14 17 14 13 12 12 13 13 12 13 13 14 14 15 15 16 15 14 14 13 14 14 14 14 13 13 13 13
10 11 16 8 7 9 2 11 6 5 7 8 6 12 12 8 12 17 15 13 13 15 16 15 12 12 13 13 13 12 13 13 14 15 15 16 15 14 14 13 14 13 12 12 11 11 11 11 11
12 14 16 6 12 6 3 8 4 3 5 12 3 12 11 12 16 16 15 13 14 16 16 15 13 11 11 11 12 13 13 14 14 14 14 15 13 13 13 12 11 11 11 11 11 12 12 11 11
18 13 10 9 8 8 6 3 8 5 7 12 5 7 11 15 15 16 15 14 12 16 16 15 14 13 12 12 13 13 14 14 13 13 12 13 12 11 11 11 10 10 10 10 11 11 11 12 12
13 15 4 3 4 13 8 5 2 6 8 11 7 10 20 14 16 15 15 14 13 14 16 15 14 14 14 14 13 14 13 13 12 11 11 12 13 12 10 13 10 7 6 5 5 6 9 13 14
14 13 10 6 6 10 9 7 9 4 4 6 7 9 15 19 17 16 13 13 13 12 14 13 15 14 15 14 12 12 12 12 10 8 7 9 3 4 11 8 4 2 2 2 4 5 11 12 15
15 11 10 8 6 8 5 5 9 7 9 10 8 10 13 18 17 17 15 14 15 14 20 15 13 14 14 12 13 10 10 7 3 3 2 1 3 3 6 3 8 5 8 9 9 8 12 12 13
14 8 11 4 5 9 10 5 1 6 11 13 15 18 16 15 17 16 16 16 15 14 11 17 10 7 12 12 8 6 4 4 4 1 6 4 5 6 6 5 4 7 2 9 11 12 11 15 13
10 4 3 8 4 5 8 4 3 7 15 10 10 16 19 17 17 16 16 15 16 16 14 16 12 9 5 8 6 4 4 3 5 7 5 2 4 6 6 6 9 8 8 11 12 10 13 15 17
13 6 3 4 2 1 3 6 7 6 8 9 6 13 18 17 17 16 15 16 16 16 15 15 12 7 6 2 7 3 4 1 7 2 5 6 7 6 8 6 7 8 9 11 11 12 12 15 17
6 5 2 4 3 4 9 9 2 3 10 14 5 10 16 16 18 18 17 15 16 18 14 15 13 9 7 7 6 4 5 2 3 3 7 9 8 7 8 9 8 8 9 11 11 12 12 13 15
8 13 13 8 2 5 9 17 7 11 6 10 14 14 10 14 17 19 21 8 12 17 17 13 12 10 7 8 6 8 6 5 5 8 6 5 7 8 9 10 9 8 9 12 11 12 13 14 15
13 16 14 13 1 8 8 6 11 8 9 9 13 12 12 15 13 22 18 28 19 15 10 5 6 11 8 10 6 7 3 4 2 3 4 11 9 10 9 10 10 10 10 11 12 13 13 14 14
11 14 17 10 8 7 8 16 14 9 10 10 10 12 11 12 22 22 21 14 19 15 9 7 13 11 10 7 6 3 5 6 8 6 5 5 6 11 8 9 10 10 11 11 11 11 14 13 13
4 3 4 6 10 12 14 11 7 7 9 8 5 10 14 22 21 17 18 17 17 12 12 10 9 10 3 6 4 1 2 0 4 3 6 8 7 9 8 8 9 8 8 10 9 10 11 12 10
6 7 6 8 8 10 16 9 2 4 6 9 8 2 19 21 18 15 14 12 12 11 12 11 9 7 4 2 2 2 2 4 4 2 9 5 6 6 8 9 9 9 9 11 9 10 11 9 10
6 8 9 8 3 8 14 10 8 3 8 11 11 10 16 14 14 12 13 12 10 11 12 10 7 4 3 2 2 2 3 6 6 10 6 4 4 6 8 9 8 10 11 9 8 8 9 9 7
5 7 11 14 15 17 13 15 14 11 10 11 14 11 19 12 11 8 10 10 11 11 10 8 6 4 4 2 1 3 6 7 8 8 4 2 5 8 4 5 8 9 8 6 7 6 9 9 10
7 11 13 15 15 14 18 12 14 14 14 13 15 12 14 14 9 9 10 9 10 12 11 7 6 7 6 6 5 6 5 8 5 7 5 4 6 7 9 3 7 6 6 5 6 7 7 8 10
14 12 15 19 20 16 13 8 14 9 18 16 16 18 15 17 16 14 12 11 10 10 7 6 7 8 6 7 5 3 5 7 8 5 5 5 10 9 6 2 5 6 6 6 6 8 8 7 7
11 16 20 23 18 13 14 5 4 12 3 17 16 14 12 13 12 12 11 9 9 7 4 3 4 1 3 4 4 7 8 8 9 9 9 9 7 7 5 2 4 6 6 7 8 6 6 7 7
18 16 12 7 9 9 5 6 14 13 14 19 17 12 11 11 10 9 8 7 4 3 5 4 4 3 5 7 8 10 9 9 11 9 8 8 7 3 3 5 5 7 7 8 8 6 5 7 6
21 10 9 12 13 14 18 7 1 16 16 20 17 13 11 9 6 6 4 6 6 3 4 10 12 12 8 9 9 8 7 7 7 5 6 8 7 6 4 4 6 8 6 7 7 7 4 6 4
10 11 15 11 19 14 7 16 12 17 11 12 15 13 11 9 8 7 5 8 7 7 6 7 7 9 10 10 8 8 6 6 7 6 5 6 6 5 7 8 9 9 6 8 7 6 5 7 3
5 7 9 6 10 10 12 8 8 11 11 16 13 14 12 9 7 7 6 10 9 9 9 11 10 11 11 9 6 7 5 4 5 5 7 8 8 9 9 9 10 9 8 6 6 6 5 5 6
12 9 8 9 8 10 11 7 11 11 13 14 14 12 11 10 8 13 12 10 9 8 10 12 12 12 9 8 8 7 5 6 7 8 9 10 11 10 10 10 10 9 6 5 5 6 7 7 6
8 4 6 8 11 11 11 4 11 12 14 15 14 11 11 13 10 10 8 6 9 13 12 11 11 10 8 8 7 8 6 9 11 10 10 10 10 11 10 9 7 5 4 4 6 6 6 6 9
Wind_Direction
244 231 239 257 247 274 3 83 315 47 64 35 19 21 45 29 8 51 125 138 118 105 116 133 120 122 123 120 118 117 112 108 109 108 105 101 99 93 87 82 79 76 74 69 63 58 51 44 37
289 270 249 272 249 128 196 68 61 63 92 90 118 154 128 98 68 109 118 107 84 111 122 130 126 125 127 125 125 123 119 118 116 111 108 102 93 91 87 83 80 76 73 67 59 52 46 38 29
259 258 269 247 257 26 54 68 86 99 128 191 109 357 123 91 117 141 123 149 141 127 113 113 120 124 132 134 133 126 122 122 118 111 104 102 98 94 89 85 80 77 70 61 55 47 38 32 25
262 225 244 254 3 64 33 79 107 134 126 242 91 125 128 43 131 134 156 152 137 141 115 127 130 137 139 141 138 130 124 122 113 106 103 101 98 94 87 83 79 74 66 61 51 42 34 26 17
235 261 251 259 73 82 46 106 133 140 102 135 243 117 78 94 110 132 144 148 147 132 122 131 137 144 145 142 135 127 123 114 107 104 106 103 98 95 90 82 76 71 65 55 47 36 25 12 6
238 245 261 203 89 115 73 128 182 42 127 104 255 113 89 119 133 143 151 157 154 130 139 137 139 141 130 129 122 114 110 108 107 107 107 108 104 98 91 86 77 67 55 45 32 22 9 356 346
252 236 270 24 84 135 90 156 166 173 146 143 124 122 111 157 145 152 155 155 140 138 125 141 146 133 119 119 118 110 106 105 107 107 109 106 103 105 102 89 68 52 45 38 26 11 350 331 316
269 272 261 238 197 94 99 171 182 265 152 82 243 131 158 155 152 152 158 146 166 139 151 149 139 149 150 141 112 108 111 110 108 121 132 138 138 142 127 131 64 52 45 38 26 347 329 311 299
249 263 185 135 261 116 134 217 124 184 286 213 176 23 118 135 161 157 154 163 162 162 133 154 148 162 140 132 115 114 116 125 130 150 179 187 52 180 120 102 141 142 221 231 276 283 287 285 301
238 256 80 60 19 311 145 251 122 191 201 184 179 104 129 147 168 167 169 175 169 175 143 146 147 161 132 126 164 144 152 161 121 77 347 82 38 4 331 144 179 196 262 223 260 243 262 353 338
234 337 63 152 16 323 304 182 193 216 235 205 186 152 149 170 176 179 182 180 173 175 149 129 150 150 149 143 164 161 153 154 143 66 352 66 341 13 354 5 0 360 311 354 340 335 347 343 333
266 358 10 8 328 280 253 350 203 239 282 360 199 167 149 182 182 192 189 181 168 166 143 125 155 155 50 120 206 125 176 176 224 72 327 28 323 10 350 10 332 350 357 345 350 338 340 333 326
246 142 243 68 221 248 18 254 286 275 240 176 295 160 155 186 193 197 194 184 174 151 140 133 124 119 117 169 72 321 13 12 31 245 74 4 333 15 341 340 327 336 353 351 341 330 336 322 325
211 294 238 232 94 187 270 274 225 251 9 308 179 274 160 194 201 197 198 194 171 124 135 112 99 89 105 66 40 36 32 13 286 340 32 342 344 8 336 319 340 344 4 346 326 327 324 324 322
261 245 198 204 339 62 320 263 204 18 326 286 291 216 190 202 216 210 189 136 101 105 94 111 116 117 92 82 61 37 14 337 14 13 25 355 352 343 336 326 334 352 348 324 319 328 327 329 325
242 236 280 110 267 126 250 298 72 9 333 304 300 275 218 212 211 29 39 82 81 96 108 100 115 93 99 76 49 63 33 339 327 304 335 1 352 336 334 334 340 2 327 318 332 338 328 321 321
200 255 223 143 105 307 228 302 64 24 347 340 319 293 258 81 58 68 90 102 118 115 93 101 93 93 72 66 82 46 36 360 15 351 346 345 329 324 346 326 330 346 318 336 335 325 323 324 323
14 244 237 245 56 341 303 314 31 8 349 355 349 317 46 61 60 67 70 85 97 103 107 98 90 89 77 100 68 48 254 199 203 269 328 314 344 339 355 323 336 330 330 329 330 321 327 321 304
352 319 306 30 55 297 303 299 271 353 12 16 359 47 61 70 66 71 85 99 98 103 117 114 100 54 52 57 16 340 343 347 308 323 280 354 318 328 325 318 333 339 338 321 327 332 325 316 318
299 300 22 309 199 272 283 282 213 104 56 46 25 46 88 84 87 90 99 98 109 126 131 118 114 127 104 91 147 150 308 298 321 300 287 291 302 323 302 343 333 327 310 330 348 330 315 309 316
199 356 349 321 314 287 290 260 150 134 92 80 77 46 92 86 93 111 123 134 121 135 134 130 87 44 39 37 10 297 296 285 258 250 232 315 307 295 352 333 311 327 309 348 324 306 322 314 320
324 15 325 309 305 304 315 298 189 148 133 96 80 67 64 86 107 111 126 112 87 52 33 37 1 2 2 326 337 335 297 297 326 303 290 303 289 282 269 317 330 319 314 306 331 308 321 315 313
351 321 292 292 285 279 303 229 138 177 79 87 74 60 61 61 60 58 56 56 53 58 49 45 28 12 357 3 2 359 303 266 277 321 319 286 282 282 303 339 307 292 296 310 294 313 330 318 319
292 308 310 275 256 248 120 301 316 130 112 101 87 74 69 67 68 64 56 50 50 50 68 140 173 90 279 271 277 271 294 313 306 315 307 289 324 299 104 263 272 292 279 300 310 314 307 319 323
352 312 314 323 335 318 106 284 53 66 63 99 98 87 73 73 73 80 89 87 86 330 291 263 340 341 332 342 332 325 315 312 292 300 308 337 297 18 91 292 296 289 301 294 294 297 312 326 347
298 340 296 334 313 313 279 357 328 76 62 89 93 94 89 91 114 117 162 187 184 212 353 5 3 349 333 334 330 318 319 306 302 21 340 302 315 311 10 260 277 284 269 280 297 294 337 326 341
344 312 341 285 259 263 326 100 58 47 99 97 106 108 105 112 105 116 87 53 31 360 14 351 337 334 337 340 317 318 335 320 323 304 300 299 293 308 293 303 289 291 280 292 296 307 309 303 5
278 317 340 321 319 308 312 2 44 18 23 120 114 108 119 135 120 83 66 28 357 353 358 359 343 342 326 328 346 320 291 272 269 270 285 286 297 294 296 295 286 289 304 314 310 312 291 300 321
316 316 4 310 279 320 306 25 49 20 23 79 95 94 96 76 52 28 14 4 346 333 341 346 342 332 354 348 340 303 312 302 312 318 311 319 313 299 296 290 301 307 321 303 300 298 278 292 301
289 302 354 323 316 321 289 323 53 30 44 65 81 87 79 45 18 5 346 317 327 3 345 326 6 350 326 308 281 280 335 337 321 322 325 324 316 315 309 307 303 305 293 308 305 330 324 303 301